Orbital Elements at Epoch 2459200.5 (2020-Dec-17.0) TDB
Reference: JPL 19 (heliocentric ecliptic J2000)
Element | Value | Uncertainty (1-sigma) | Units |
e | .1822413483898452 | 4.6236e-08 | |
a | 2.42385792352905 | 8.8186e-09 | au |
q | 1.982130787239705 | 1.1058e-07 | au |
i | 2.507555883043388 | 4.9298e-06 | deg |
node | 215.8136389558255 | 7.5482e-05 | deg |
peri | 182.3584733777809 | 7.6159e-05 | deg |
M | 216.164017449286 | 9.6461e-06 | deg |
tp | 2459751.211581780198 (2022-Jun-20.71158178) | 3.8149e-05 | TDB |
period | 1378.348907728771 3.77 | 7.5222e-06 2.059e-08 | d yr |
n | .2611820548348708 | 1.4254e-09 | deg/d |
Q | 2.865585059818394 | 1.0426e-08 | au |
|
| | Orbit Determination Parameters
Additional Information
|